TimeCST,TemperatureF,Dew PointF,Humidity,Sea Level PressureIn,VisibilityMPH,Wind Direction,Wind SpeedMPH,Gust SpeedMPH,PrecipitationIn,Events,Conditions,WindDirDegrees,DateUTC
12:15 AM,29.1,25.0,85,30.39,10.0,Calm,Calm,-,N/A,,Clear,0,2012-11-15 06:15:00
12:35 AM,29.1,25.3,86,30.39,10.0,Calm,Calm,-,N/A,,Clear,0,2012-11-15 06:35:00
12:55 AM,30.2,26.6,86,30.39,10.0,Calm,Calm,-,N/A,,Clear,0,2012-11-15 06:55:00
1:15 AM,27.7,23.5,84,30.38,10.0,Calm,Calm,-,N/A,,Clear,0,2012-11-15 07:15:00
1:35 AM,28.2,25.3,89,30.39,7.0,Calm,Calm,-,N/A,,Clear,0,2012-11-15 07:35:00
1:55 AM,28.4,25.0,87,30.38,7.0,Calm,Calm,-,N/A,,Clear,0,2012-11-15 07:55:00
2:15 AM,28.0,24.8,88,30.39,7.0,Calm,Calm,-,N/A,,Clear,0,2012-11-15 08:15:00
2:35 AM,27.5,24.8,90,30.39,7.0,Calm,Calm,-,N/A,,Clear,0,2012-11-15 08:35:00
2:55 AM,26.6,24.3,91,30.38,7.0,Calm,Calm,-,N/A,,Clear,0,2012-11-15 08:55:00
3:15 AM,24.8,23.0,93,30.37,5.0,Calm,Calm,-,N/A,,Clear,0,2012-11-15 09:15:00
3:35 AM,23.2,21.7,94,30.36,5.0,Calm,Calm,-,N/A,,Clear,0,2012-11-15 09:35:00
3:55 AM,23.2,22.1,96,30.36,5.0,Calm,Calm,-,N/A,,Clear,0,2012-11-15 09:55:00
4:15 AM,24.8,23.7,96,30.36,5.0,Calm,Calm,-,N/A,,Clear,0,2012-11-15 10:15:00
4:35 AM,25.2,23.9,95,30.37,5.0,Calm,Calm,-,N/A,,Clear,0,2012-11-15 10:35:00
4:55 AM,25.7,24.1,94,30.37,7.0,Calm,Calm,-,N/A,,Clear,0,2012-11-15 10:55:00
5:15 AM,24.3,22.6,94,30.37,7.0,Calm,Calm,-,N/A,,Clear,0,2012-11-15 11:15:00
5:35 AM,22.8,21.7,96,30.37,2.0,Calm,Calm,-,N/A,,Clear,0,2012-11-15 11:35:00
5:55 AM,22.5,21.2,95,30.37,4.0,Calm,Calm,-,N/A,,Clear,0,2012-11-15 11:55:00
6:15 AM,23.0,21.9,96,30.37,4.0,Calm,Calm,-,N/A,,Clear,0,2012-11-15 12:15:00
6:35 AM,25.7,24.4,95,30.38,5.0,Calm,Calm,-,N/A,,Clear,0,2012-11-15 12:35:00
6:55 AM,24.6,22.8,93,30.37,3.0,Calm,Calm,-,N/A,,Clear,0,2012-11-15 12:55:00
7:15 AM,24.8,23.2,94,30.38,3.0,Calm,Calm,-,N/A,,Clear,0,2012-11-15 13:15:00
7:35 AM,25.7,24.3,94,30.39,4.0,Calm,Calm,-,N/A,,Clear,0,2012-11-15 13:35:00
7:55 AM,26.8,25.2,94,30.39,4.0,Calm,Calm,-,N/A,,Clear,0,2012-11-15 13:55:00
8:15 AM,29.1,27.5,94,30.39,4.0,Calm,Calm,-,N/A,,Clear,0,2012-11-15 14:15:00
8:35 AM,31.8,29.1,90,30.40,4.0,Calm,Calm,-,N/A,,Clear,0,2012-11-15 14:35:00
8:55 AM,32.9,29.8,88,30.40,5.0,Calm,Calm,-,N/A,,Clear,0,2012-11-15 14:55:00
9:15 AM,34.7,30.4,84,30.40,5.0,Calm,Calm,-,N/A,,Haze,0,2012-11-15 15:15:00
9:35 AM,35.8,30.6,81,30.40,5.0,SSW,3.5,-,N/A,,Haze,200,2012-11-15 15:35:00
9:55 AM,37.4,30.2,75,30.41,7.0,Calm,Calm,-,N/A,,Clear,0,2012-11-15 15:55:00
10:15 AM,37.4,30.6,76,30.41,7.0,SSW,3.5,-,N/A,,Clear,200,2012-11-15 16:15:00
10:35 AM,39.2,31.3,73,30.40,7.0,South,4.6,-,N/A,,Clear,190,2012-11-15 16:35:00
10:55 AM,40.8,31.1,68,30.40,7.0,SSW,3.5,-,N/A,,Clear,210,2012-11-15 16:55:00
11:15 AM,41.7,30.9,66,30.39,10.0,SSW,4.6,-,N/A,,Clear,210,2012-11-15 17:15:00
11:35 AM,42.1,30.2,63,30.38,10.0,SW,3.5,-,N/A,,Clear,220,2012-11-15 17:35:00
11:55 AM,42.8,30.2,61,30.37,10.0,South,4.6,-,N/A,,Clear,190,2012-11-15 17:55:00
12:15 PM,43.9,29.3,57,30.36,10.0,Calm,Calm,-,N/A,,Clear,0,2012-11-15 18:15:00
12:35 PM,44.6,30.0,57,30.36,10.0,South,5.8,-,N/A,,Clear,190,2012-11-15 18:35:00
12:55 PM,45.1,27.9,51,30.34,10.0,South,5.8,-,N/A,,Clear,190,2012-11-15 18:55:00
1:15 PM,46.0,27.7,49,30.34,10.0,SW,3.5,-,N/A,,Clear,230,2012-11-15 19:15:00
1:35 PM,46.6,26.1,45,30.33,10.0,Calm,Calm,-,N/A,,Clear,0,2012-11-15 19:35:00
1:55 PM,46.0,26.2,46,30.33,10.0,SW,3.5,-,N/A,,Clear,230,2012-11-15 19:55:00
2:15 PM,46.9,24.8,42,30.33,10.0,SW,3.5,-,N/A,,Clear,220,2012-11-15 20:15:00
2:35 PM,47.3,26.1,44,30.32,10.0,South,4.6,-,N/A,,Clear,190,2012-11-15 20:35:00
2:55 PM,46.4,24.8,43,30.32,10.0,South,4.6,-,N/A,,Clear,190,2012-11-15 20:55:00
3:15 PM,46.4,23.9,41,30.33,10.0,SSW,4.6,-,N/A,,Clear,200,2012-11-15 21:15:00
3:35 PM,45.3,24.3,44,30.33,10.0,SSW,5.8,-,N/A,,Clear,210,2012-11-15 21:35:00
3:55 PM,44.6,26.6,49,30.33,10.0,SSW,4.6,-,N/A,,Clear,200,2012-11-15 21:55:00
4:15 PM,42.4,28.4,58,30.33,10.0,SSW,4.6,-,N/A,,Clear,200,2012-11-15 22:15:00
4:35 PM,39.4,27.5,62,30.33,10.0,SSW,5.8,-,N/A,,Clear,200,2012-11-15 22:35:00
4:55 PM,37.4,27.1,66,30.34,10.0,SSW,5.8,-,N/A,,Clear,200,2012-11-15 22:55:00
5:15 PM,34.7,27.0,73,30.34,10.0,SSW,4.6,-,N/A,,Clear,210,2012-11-15 23:15:00
5:35 PM,34.5,27.3,75,30.35,10.0,Calm,Calm,-,N/A,,Clear,0,2012-11-15 23:35:00
5:55 PM,35.8,27.5,72,30.35,10.0,SSW,3.5,-,N/A,,Clear,200,2012-11-15 23:55:00
6:15 PM,33.4,27.5,79,30.36,10.0,Calm,Calm,-,N/A,,Clear,0,2012-11-16 00:15:00
6:35 PM,34.9,27.5,74,30.36,10.0,Calm,Calm,-,N/A,,Clear,0,2012-11-16 00:35:00
6:55 PM,33.4,27.7,79,30.36,10.0,Calm,Calm,-,N/A,,Clear,0,2012-11-16 00:55:00
7:15 PM,32.9,28.4,84,30.36,10.0,Calm,Calm,-,N/A,,Clear,0,2012-11-16 01:15:00
7:35 PM,31.6,27.5,85,30.37,7.0,Calm,Calm,-,N/A,,Clear,0,2012-11-16 01:35:00
7:55 PM,31.8,27.5,84,30.37,10.0,Calm,Calm,-,N/A,,Clear,0,2012-11-16 01:55:00
8:15 PM,32.2,28.4,86,30.37,10.0,Calm,Calm,-,N/A,,Clear,0,2012-11-16 02:15:00
8:35 PM,30.7,26.6,85,30.37,10.0,Calm,Calm,-,N/A,,Clear,0,2012-11-16 02:35:00
8:55 PM,32.0,27.7,84,30.38,10.0,Calm,Calm,-,N/A,,Clear,0,2012-11-16 02:55:00
9:15 PM,32.0,27.5,83,30.37,10.0,Calm,Calm,-,N/A,,Clear,0,2012-11-16 03:15:00
9:35 PM,31.3,27.0,84,30.37,7.0,Calm,Calm,-,N/A,,Clear,0,2012-11-16 03:35:00
9:55 PM,28.8,25.3,87,30.37,7.0,Calm,Calm,-,N/A,,Clear,0,2012-11-16 03:55:00
10:15 PM,30.2,26.6,86,30.37,7.0,Calm,Calm,-,N/A,,Clear,0,2012-11-16 04:15:00
10:35 PM,30.9,27.3,86,30.38,7.0,Calm,Calm,-,N/A,,Clear,0,2012-11-16 04:35:00
10:55 PM,28.4,25.7,90,30.38,7.0,Calm,Calm,-,N/A,,Clear,0,2012-11-16 04:55:00
11:15 PM,27.9,25.5,91,30.38,7.0,Calm,Calm,-,N/A,,Clear,0,2012-11-16 05:15:00
11:35 PM,29.3,27.0,91,30.39,7.0,Calm,Calm,-,N/A,,Clear,0,2012-11-16 05:35:00
11:55 PM,29.8,27.1,90,30.39,7.0,Calm,Calm,-,N/A,,Clear,0,2012-11-16 05:55:00